ONEWEB-0257 (48975 NORAD) Tracking and Keplerian Element Data

This shows tracking and keplerian element data for the satellite.

Feedback or suggestion? Click here.




ElementValue
Catalog48975
NameONEWEB-0257
Epoch Orbit567
Epoch Day211.25001157
Epoch Year2021
RAAN227.4385
Inclination87.4672
Eccentricity0.0010818
Argument of Perigee142.6898
Mean Anonmoly185.0337
Mean Motion14.9660053
Decay Rate-0.01473267
L11 48975U 21060J 21211.25001157 -.01473267 00000-0 -14186+0 0 9991
L22 48975 87.4672 227.4385 0010818 142.6898 185.0337 14.96600530 5675

Live tracking and technical data element details for ONEWEB-0257 (NORAD 48975). ONEWEB-0257 can be tracked NOW for your location showing map with azimuth and elevation plus other details from your city location.

Track the satellite on the map from your city or location and see movement details for azimuth, elevation, latitude, longitude, range, height, and movement on the map or in text.







IsCatalogInMostPopularTable: catalog: 48975, numindb: 4
Update: records affected: 1



GetName: 48975 ONEWEB-0257

Hit Count: updated at: Sat, 31 Jul 2021 14:25:48 GMT